User: anonymous   Login
Location: Caltech
(34.1382°N, 118.1253°W)
Time: 07:25:42
(UTC-07:00)
Language:

Iridium 91 - Orbit

View from above orbital plane
View from above orbital plane
View from above satellite
View from above satellite

Ground track
Ground track

The orbit data is extracted from the following two-line orbital elements,

1 27372U 02005A   15117.49255336  .00000431  00000-0  14694-3 0  9995
2 27372 086.3969 254.4378 0001585 094.7232 018.4198 14.34210787699588
Epoch (UTC): 27 April 2015 11:49:16
Eccentricity: 0.0001585
inclination: 86.3969°
perigee height: 776 km
apogee height: 779 km
right ascension of ascending node: 254.4378°
argument of perigee: 94.7232°
revolutions per day: 14.34210787
mean anomaly at epoch: 18.4198°
orbit number at epoch: 69958

The dashed part of the orbit path shows where the satellite is in the earth's shadow,  

DLR